Location: Unspecified
(0.0000°N, 0.0000°E)
Time: 23:43:12
(UTC+00:00)

Vanguard 2 - Pass Details

Date: 17 December 2018
Orbit: 552 x 2939 km, 32.9° (Epoch: 18 January)

Event Time Altitude Azimuth Distance (km) Brightness Sun altitude
Rises 15:46:37 0° 248° (WSW) 3,759 12.3 29.5°
Reaches altitude 10° 15:49:56 10° 256° (WSW) 2,481 11.7 28.7°
Maximum altitude 15:54:55 35° 321° (NW) 1,061 8.7 27.6°
Drops below altitude 10° 15:58:43 10° 29° (NNE) 1,872 9.2 26.8°
Sets 16:00:54 0° 39° (NE) 2,711 9.9 26.3°
